Location: Unspecified
(0.0000°N, 0.0000°E)
Time: 10:35:28
(UTC+00:00)

Vanguard 1 - Pass Details

Date: 14 December 2017
Orbit: 650 x 3833 km, 34.3° (Epoch: 22 June)

Event Time Altitude Azimuth Distance (km) Brightness Sun altitude
Rises 08:48:09 0° 265° (W) 7,847 14.3 39.1°
Reaches altitude 10° 08:54:51 10° 275° (W) 6,930 14.1 40.6°
Maximum altitude 09:13:22 29° 328° (NNW) 5,041 13.6 44.5°
Drops below altitude 10° 09:27:59 10° 23° (NNE) 5,411 13.9 47.5°
Sets 09:32:28 0° 35° (NE) 5,967 14.1 48.4°
